COSMOS 1275 DEB, 13813

Orbit data source: Space-Track

COSMOS 1275 DEB, 13813 is space debris in LEO originally from a launch on Thu, 04 Jun 1981 UTC launched from the Plesetsk Missile And Space Complex (PKMTR). Debris objects in space refer to the collection of defunct objects orbiting the Earth. Examples of debris include non-operational satellites, rocket bodies, and fragments generated from explosions, collisions, or faulty payload assembly.

Loading next visibility...
Identifier
13813, 1981-053HH
Orbit
LEO
Country
Flag of CISCIS
Related business
Manufacturer
Unknown
Mission
Spacecraft
Bus & Motor
Unknown
Mass
Unknown
Launch date (UTC)
1981-06-04 (45 years ago)
Launch vehicle
Unknown
Launch site
Plesetsk Missile And Space Complex (PKMTR)
Object type
Payload
Rocket body
Debris
Shape & HBR
Unknown shape, 0.1 m
Radar Cross Section
Medium (>0.1 m² and <1 m²)

Expand to show TLE details & history
Last TLE update: 17 hours ago

TLE from 17 hours ago
0 COSMOS 1275 DEB
1 13813U 81053HH  26175.22185375  .00001615  00000-0  80671-3 0  9995
2 13813  82.9345 227.4927 0043673  88.8161 359.6457 14.15784333214855
Epoch: 2026-06-24T05:19Z
TLE epoch observation values (Epoch: 2026-06-24T05:19:28.164Z)
Latitude
82.80669°
Longitude
-47.11122°
Altitude
821.701 km
Speed
7.465 km/s
True Right ascension
20h 20m 33s
True Declination
82° 45' 51"
Sunlit
Object was in daylight at epoch
Visualization orbit readout
Latitude
Unknown
Longitude
Unknown
Altitude
Unknown
Speed
Unknown
Apparent Right ascension
Unknown
Apparent Declination
Unknown
Sunlit
N/A
Visualization observer readout
Local Sidereal Time
09:41:57
Azimuth
Unknown
Elevation
Unknown
Doppler factor
Unknown
Orbital elements
Apogee altitude
868.248 km
Perigee altitude
805.228 km
Semi-major axis
7,214.875 km
Eccentricity
0.00437
Inclination
82.9345°
RAAN
227.4927°
Arg. of periapsis
88.8161°
True anomaly
359.64259°
Mean anomaly
359.6457°
Eccentric anomaly
359.64415°
Mean motion
3.5416 °/min
Orbital period
101.65 mins
BSTAR
0.00080671
Loading maneuver chart data...
Computing Atmospheric mass density...

Documentation

Showing up to 5 results
|